TimeEDT,TemperatureF,Dew PointF,Humidity,Sea Level PressureIn,VisibilityMPH,Wind Direction,Wind SpeedMPH,Gust SpeedMPH,PrecipitationIn,Events,Conditions,WindDirDegrees,DateUTC
12:15 AM,51.8,44.6,76,30.22,10.0,NNE,6.9,-,N/A,,Clear,30,2014-03-14 04:15:00
12:35 AM,51.8,44.6,76,30.22,10.0,NNE,5.8,-,N/A,,Clear,30,2014-03-14 04:35:00
12:55 AM,51.8,44.6,76,30.23,10.0,NNE,8.1,-,N/A,,Clear,30,2014-03-14 04:55:00
1:15 AM,50.0,44.6,82,30.23,10.0,ENE,8.1,-,N/A,,Clear,60,2014-03-14 05:15:00
1:35 AM,50.0,44.6,82,30.23,10.0,ENE,8.1,-,N/A,,Clear,60,2014-03-14 05:35:00
1:55 AM,50.0,44.6,82,30.24,10.0,ENE,8.1,-,N/A,,Clear,70,2014-03-14 05:55:00
2:15 AM,50.0,42.8,76,30.24,10.0,ENE,5.8,-,N/A,,Clear,70,2014-03-14 06:15:00
2:35 AM,48.2,42.8,82,30.23,10.0,ENE,8.1,-,N/A,,Clear,60,2014-03-14 06:35:00
2:55 AM,48.2,42.8,82,30.23,10.0,ENE,8.1,-,N/A,,Clear,60,2014-03-14 06:55:00
3:15 AM,48.2,42.8,82,30.23,10.0,NE,9.2,-,N/A,,Clear,50,2014-03-14 07:15:00
3:35 AM,48.2,44.6,87,30.22,10.0,NE,11.5,-,N/A,,Clear,50,2014-03-14 07:35:00
3:55 AM,48.2,44.6,87,30.22,10.0,ENE,10.4,-,N/A,,Clear,60,2014-03-14 07:55:00
4:15 AM,48.2,42.8,82,30.21,10.0,ENE,11.5,-,N/A,,Clear,60,2014-03-14 08:15:00
4:35 AM,48.2,42.8,82,30.20,10.0,NE,11.5,-,N/A,,Clear,50,2014-03-14 08:35:00
4:55 AM,48.2,42.8,82,30.21,10.0,ENE,9.2,-,N/A,,Clear,60,2014-03-14 08:55:00
5:15 AM,48.2,42.8,82,30.22,10.0,ENE,9.2,-,N/A,,Clear,60,2014-03-14 09:15:00
5:35 AM,48.2,41.0,76,30.22,10.0,ENE,10.4,-,N/A,,Clear,60,2014-03-14 09:35:00
5:55 AM,48.2,41.0,76,30.23,10.0,NE,11.5,-,N/A,,Clear,50,2014-03-14 09:55:00
6:15 AM,48.2,41.0,76,30.23,10.0,NE,11.5,-,N/A,,Clear,50,2014-03-14 10:15:00
6:35 AM,48.2,41.0,76,30.23,10.0,ENE,11.5,-,N/A,,Clear,60,2014-03-14 10:35:00
6:55 AM,48.2,41.0,76,30.24,10.0,ENE,12.7,-,N/A,,Clear,60,2014-03-14 10:55:00
7:15 AM,48.2,41.0,76,30.25,10.0,NE,11.5,-,N/A,,Clear,50,2014-03-14 11:15:00
7:35 AM,46.4,41.0,81,30.25,10.0,NE,11.5,-,N/A,,Clear,50,2014-03-14 11:35:00
7:55 AM,46.4,41.0,81,30.26,10.0,ENE,11.5,-,N/A,,Clear,60,2014-03-14 11:55:00
8:15 AM,48.2,41.0,76,30.26,10.0,ENE,11.5,-,N/A,,Clear,60,2014-03-14 12:15:00
8:35 AM,50.0,41.0,71,30.27,10.0,ENE,11.5,-,N/A,,Clear,60,2014-03-14 12:35:00
8:55 AM,51.8,41.0,67,30.27,10.0,ENE,11.5,-,N/A,,Clear,70,2014-03-14 12:55:00
9:15 AM,53.6,41.0,62,30.27,10.0,ENE,10.4,-,N/A,,Clear,70,2014-03-14 13:15:00
9:35 AM,55.4,42.8,63,30.28,10.0,ENE,10.4,-,N/A,,Clear,60,2014-03-14 13:35:00
9:55 AM,59.0,44.6,59,30.28,9.0,ENE,10.4,-,N/A,,Clear,70,2014-03-14 13:55:00
10:15 AM,62.6,44.6,52,30.28,10.0,East,10.4,-,N/A,,Clear,80,2014-03-14 14:15:00
10:35 AM,64.4,46.4,52,30.28,10.0,East,8.1,-,N/A,,Unknown,100,2014-03-14 14:35:00
10:55 AM,64.4,46.4,52,30.28,9.0,East,13.8,-,N/A,,Unknown,90,2014-03-14 14:55:00
11:15 AM,66.2,48.2,52,30.28,10.0,East,13.8,18.4,N/A,,Unknown,80,2014-03-14 15:15:00
11:35 AM,68.0,48.2,49,30.27,10.0,East,17.3,21.9,N/A,,Unknown,80,2014-03-14 15:35:00
11:55 AM,68.0,48.2,49,30.26,10.0,East,17.3,23.0,N/A,,Clear,90,2014-03-14 15:55:00
12:15 PM,69.8,48.2,46,30.26,10.0,East,16.1,24.2,N/A,,Clear,100,2014-03-14 16:15:00
12:35 PM,71.6,48.2,43,30.26,10.0,East,12.7,16.1,N/A,,Clear,90,2014-03-14 16:35:00
12:55 PM,71.6,48.2,43,30.26,10.0,ESE,15.0,18.4,N/A,,Clear,120,2014-03-14 16:55:00
1:15 PM,71.6,48.2,43,30.26,10.0,East,12.7,18.4,N/A,,Clear,90,2014-03-14 17:15:00
1:35 PM,71.6,48.2,43,30.25,10.0,ENE,10.4,18.4,N/A,,Clear,60,2014-03-14 17:35:00
1:55 PM,73.4,46.4,38,30.25,10.0,SE,4.6,18.4,N/A,,Clear,130,2014-03-14 17:55:00
2:15 PM,73.4,46.4,38,30.24,10.0,ENE,10.4,-,N/A,,Clear,60,2014-03-14 18:15:00
2:35 PM,75.2,46.4,36,30.24,10.0,East,8.1,-,N/A,,Clear,80,2014-03-14 18:35:00
2:55 PM,75.2,46.4,36,30.22,10.0,Calm,Calm,-,N/A,,Clear,0,2014-03-14 18:55:00
3:15 PM,75.2,48.2,38,30.21,10.0,ENE,9.2,-,N/A,,Clear,70,2014-03-14 19:15:00
3:35 PM,75.2,46.4,36,30.20,10.0,NE,9.2,-,N/A,,Clear,50,2014-03-14 19:35:00
3:55 PM,75.2,44.6,34,30.19,10.0,SSE,4.6,-,N/A,,Clear,150,2014-03-14 19:55:00
4:15 PM,73.4,55.4,53,30.19,10.0,WSW,10.4,-,N/A,,Clear,240,2014-03-14 20:15:00
4:35 PM,71.6,55.4,57,30.18,10.0,West,9.2,-,N/A,,Clear,260,2014-03-14 20:35:00
4:55 PM,71.6,55.4,57,30.18,10.0,West,10.4,-,N/A,,Clear,260,2014-03-14 20:55:00
5:15 PM,69.8,53.6,56,30.17,10.0,WNW,9.2,-,N/A,,Clear,290,2014-03-14 21:15:00
5:35 PM,71.6,55.4,57,30.16,10.0,WNW,8.1,-,N/A,,Clear,290,2014-03-14 21:35:00
5:55 PM,69.8,53.6,56,30.16,10.0,NW,6.9,-,N/A,,Clear,310,2014-03-14 21:55:00
6:15 PM,69.8,53.6,56,30.15,10.0,WNW,5.8,-,N/A,,Clear,300,2014-03-14 22:15:00
6:35 PM,69.8,55.4,60,30.15,10.0,WNW,6.9,-,N/A,,Clear,300,2014-03-14 22:35:00
6:55 PM,68.0,55.4,64,30.16,10.0,WNW,6.9,-,N/A,,Clear,300,2014-03-14 22:55:00
7:15 PM,68.0,55.4,64,30.16,10.0,WNW,6.9,-,N/A,,Clear,300,2014-03-14 23:15:00
7:35 PM,66.2,55.4,68,30.16,10.0,WNW,5.8,-,N/A,,Clear,300,2014-03-14 23:35:00
7:55 PM,66.2,55.4,68,30.17,10.0,NNW,4.6,-,N/A,,Clear,330,2014-03-14 23:55:00
8:15 PM,66.2,55.4,68,30.17,10.0,NNW,3.5,-,N/A,,Clear,330,2014-03-15 00:15:00
8:35 PM,66.2,55.4,68,30.18,10.0,NNW,4.6,-,N/A,,Clear,330,2014-03-15 00:35:00
8:55 PM,66.2,55.4,68,30.19,10.0,North,3.5,-,N/A,,Clear,350,2014-03-15 00:55:00
9:15 PM,64.4,55.4,73,30.20,10.0,North,3.5,-,N/A,,Clear,10,2014-03-15 01:15:00
9:35 PM,64.4,55.4,73,30.21,10.0,North,4.6,-,N/A,,Clear,10,2014-03-15 01:35:00
9:55 PM,64.4,55.4,73,30.21,10.0,NE,3.5,-,N/A,,Partly Cloudy,40,2014-03-15 01:55:00
10:15 PM,62.6,55.4,77,30.21,10.0,NE,4.6,-,N/A,,Partly Cloudy,40,2014-03-15 02:15:00
10:35 PM,62.6,53.6,72,30.20,10.0,ENE,4.6,-,N/A,,Clear,70,2014-03-15 02:35:00
10:55 PM,62.6,53.6,72,30.19,10.0,East,6.9,-,N/A,,Clear,90,2014-03-15 02:55:00
11:15 PM,62.6,53.6,72,30.20,10.0,East,6.9,-,N/A,,Clear,100,2014-03-15 03:15:00
11:35 PM,62.6,53.6,72,30.20,10.0,East,6.9,-,N/A,,Clear,90,2014-03-15 03:35:00
11:55 PM,62.6,53.6,72,30.20,10.0,East,6.9,-,N/A,,Clear,100,2014-03-15 03:55:00